OEDXB EDVK-EDVE

Flight info

Callsign OEDXB
Flight time N/A
Altitude 7000
Route LUXUX1W/27 LUXUX P605 NORTA NORTA7R
Aircraft PA34/L-SDFGRY/S

Departure

Time 2026-04-20 11:40
Airport Kassel Airport (EDVK)

Arrival

Time N/A
Airport Braunschweig-Wolfsburg Airport (EDVE)
Time Latitude Longitude Altitude Speed Heading
2026-04-20 11:20 51.41759 9.38739 857 ft 0 kts 274°
2026-04-20 11:33 51.41759 9.38738 857 ft 0 kts 273°
2026-04-20 11:33 51.41738 9.38734 853 ft 8 kts 146°
2026-04-20 11:33 51.41737 9.38783 857 ft 4 kts 72°
2026-04-20 11:33 51.41751 9.38839 846 ft 7 kts 15°
2026-04-20 11:34 51.41825 9.38849 857 ft 15 kts
2026-04-20 11:34 51.41874 9.38856 851 ft 9 kts
2026-04-20 11:34 51.41924 9.38872 845 ft 7 kts 40°
2026-04-20 11:34 51.41930 9.39018 847 ft 19 kts 95°
2026-04-20 11:35 51.41918 9.39232 845 ft 18 kts 94°
2026-04-20 11:35 51.41909 9.39401 843 ft 19 kts 95°
2026-04-20 11:35 51.41901 9.39554 841 ft 18 kts 96°
2026-04-20 11:35 51.41890 9.39752 839 ft 21 kts 95°
2026-04-20 11:36 51.41883 9.39875 838 ft 12 kts 93°
2026-04-20 11:36 51.41873 9.40064 837 ft 16 kts 95°
2026-04-20 11:36 51.41863 9.40244 835 ft 19 kts 94°
2026-04-20 11:36 51.41854 9.40434 832 ft 20 kts 94°
2026-04-20 11:37 51.41842 9.40634 829 ft 15 kts 99°
2026-04-20 11:37 51.41842 9.40962 826 ft 12 kts 36°
2026-04-20 11:37 51.41884 9.40977 826 ft 0 kts
2026-04-20 11:39 51.41904 9.40980 826 ft 10 kts
2026-04-20 11:39 51.41988 9.40895 828 ft 23 kts 274°
2026-04-20 11:39 51.42017 9.40355 831 ft 76 kts 276°
2026-04-20 11:40 51.42051 9.39431 1088 ft 81 kts 277°
2026-04-20 11:40 51.42091 9.38510 1359 ft 88 kts 279°
2026-04-20 11:40 51.42148 9.37505 1603 ft 94 kts 281°
2026-04-20 11:40 51.42209 9.36497 1992 ft 86 kts 283°
2026-04-20 11:41 51.42270 9.35531 2216 ft 89 kts 284°
2026-04-20 11:41 51.42338 9.34562 2499 ft 87 kts 284°
2026-04-20 11:41 51.42388 9.33569 2727 ft 89 kts 283°
2026-04-20 11:41 51.42442 9.32631 3008 ft 87 kts 286°
2026-04-20 11:42 51.42506 9.31628 3241 ft 89 kts 283°
2026-04-20 11:42 51.42558 9.30653 3496 ft 90 kts 284°
2026-04-20 11:42 51.42618 9.29652 3762 ft 89 kts 283°
2026-04-20 11:42 51.42680 9.28660 4026 ft 90 kts 284°
2026-04-20 11:43 51.42738 9.27671 4288 ft 89 kts 283°
2026-04-20 11:43 51.42793 9.26664 4427 ft 91 kts 284°
2026-04-20 11:43 51.42854 9.25679 4579 ft 87 kts 284°
2026-04-20 11:43 51.43079 9.24817 4649 ft 88 kts 321°
2026-04-20 11:44 51.43658 9.24619 4907 ft 85 kts 351°
2026-04-20 11:44 51.44268 9.24625 5076 ft 90 kts 352°
2026-04-20 11:44 51.44897 9.24614 5278 ft 92 kts 352°
2026-04-20 11:44 51.45534 9.24570 5459 ft 92 kts 350°
2026-04-20 11:45 51.46163 9.24498 5700 ft 89 kts 348°
2026-04-20 11:45 51.46784 9.24401 5894 ft 91 kts 348°
2026-04-20 11:45 51.47403 9.24280 6114 ft 89 kts 347°
2026-04-20 11:45 51.48028 9.24244 6280 ft 96 kts
2026-04-20 11:46 51.48510 9.25065 6524 ft 111 kts 54°
2026-04-20 11:46 51.48764 9.26247 6751 ft 111 kts 57°
2026-04-20 11:46 51.49056 9.27376 6954 ft 112 kts 56°
2026-04-20 11:46 51.49383 9.28517 7139 ft 113 kts 52°
2026-04-20 11:47 51.49759 9.29718 7137 ft 128 kts 53°
2026-04-20 11:47 51.50189 9.31035 7128 ft 137 kts 52°
2026-04-20 11:47 51.50627 9.32413 7119 ft 140 kts 53°
2026-04-20 11:47 51.51076 9.33807 7138 ft 141 kts 52°
2026-04-20 11:48 51.51527 9.35219 7124 ft 143 kts 56°
2026-04-20 11:48 51.51950 9.36671 7112 ft 145 kts 56°
2026-04-20 11:48 51.52378 9.38128 7104 ft 146 kts 56°
2026-04-20 11:48 51.52801 9.39607 7105 ft 146 kts 57°
2026-04-20 11:49 51.53229 9.41112 7105 ft 156 kts 57°
2026-04-20 11:49 51.53705 9.42768 7123 ft 168 kts 58°
2026-04-20 11:49 51.54190 9.44499 7124 ft 171 kts 58°
2026-04-20 11:49 51.54681 9.46253 7128 ft 173 kts 58°
2026-04-20 11:50 51.55174 9.48003 7126 ft 172 kts 58°
2026-04-20 11:50 51.55664 9.49742 7126 ft 171 kts 58°
2026-04-20 11:50 51.56158 9.51489 7129 ft 173 kts 58°
2026-04-20 11:50 51.56649 9.53233 7126 ft 174 kts 59°
2026-04-20 11:51 51.57146 9.55003 7129 ft 173 kts 59°
2026-04-20 11:51 51.57642 9.56766 7127 ft 173 kts 59°
2026-04-20 11:51 51.58137 9.58526 7132 ft 173 kts 59°
2026-04-20 11:51 51.58634 9.60292 7127 ft 174 kts 59°
2026-04-20 11:52 51.59130 9.62063 7130 ft 174 kts 59°
2026-04-20 11:52 51.59625 9.63829 7133 ft 173 kts 59°
2026-04-20 11:52 51.60115 9.65582 7133 ft 172 kts 59°
2026-04-20 11:52 51.60605 9.67330 7131 ft 171 kts 59°
2026-04-20 11:53 51.61086 9.69049 7130 ft 171 kts 59°
2026-04-20 11:53 51.61573 9.70791 7130 ft 171 kts 59°
2026-04-20 11:53 51.62060 9.72532 7129 ft 170 kts 59°
2026-04-20 11:53 51.62545 9.74271 7129 ft 170 kts 60°
2026-04-20 11:54 51.63125 9.75875 7115 ft 162 kts 40°
2026-04-20 11:54 51.64087 9.76670 7122 ft 154 kts
2026-04-20 11:54 51.65152 9.76859 7125 ft 155 kts
2026-04-20 11:54 51.66220 9.77046 7128 ft 154 kts
2026-04-20 11:55 51.67273 9.77243 7130 ft 155 kts
2026-04-20 11:55 51.68344 9.77445 7124 ft 155 kts
2026-04-20 11:55 51.69413 9.77648 7130 ft 155 kts
2026-04-20 11:55 51.70486 9.77853 7130 ft 155 kts
2026-04-20 11:56 51.71558 9.78056 7132 ft 155 kts
2026-04-20 11:56 51.72628 9.78260 7133 ft 155 kts
2026-04-20 11:56 51.73701 9.78464 7130 ft 155 kts
2026-04-20 11:56 51.74771 9.78668 7132 ft 155 kts
2026-04-20 11:57 51.75845 9.78872 7131 ft 155 kts
2026-04-20 11:57 51.76907 9.79075 7134 ft 156 kts
2026-04-20 11:57 51.77984 9.79280 7133 ft 156 kts
2026-04-20 11:57 51.79064 9.79486 7133 ft 156 kts
2026-04-20 11:58 51.80147 9.79693 7134 ft 157 kts
2026-04-20 11:58 51.81227 9.79899 7135 ft 156 kts
2026-04-20 11:58 51.82306 9.80105 7131 ft 156 kts
2026-04-20 11:58 51.83381 9.80311 7137 ft 155 kts
2026-04-20 11:59 51.84454 9.80516 7132 ft 156 kts
2026-04-20 11:59 51.85519 9.80719 7136 ft 156 kts
2026-04-20 11:59 51.86586 9.81027 7122 ft 156 kts 20°
2026-04-20 11:59 51.87398 9.82154 7128 ft 158 kts 52°
2026-04-20 12:00 51.87960 9.83687 7137 ft 159 kts 56°
2026-04-20 12:00 51.88533 9.85214 7136 ft 159 kts 55°
2026-04-20 12:00 51.89122 9.86721 7137 ft 158 kts 54°
2026-04-20 12:00 51.89715 9.88224 7138 ft 158 kts 55°
2026-04-20 12:01 51.90307 9.89725 7135 ft 157 kts 55°
2026-04-20 12:01 51.90897 9.91219 7140 ft 158 kts 55°
2026-04-20 12:01 51.91477 9.92690 7139 ft 157 kts 56°
2026-04-20 12:01 51.92061 9.94175 7133 ft 156 kts 56°
2026-04-20 12:02 51.92642 9.95652 7136 ft 155 kts 56°
2026-04-20 12:02 51.93221 9.97122 7136 ft 154 kts 56°
2026-04-20 12:02 51.93798 9.98588 7134 ft 154 kts 56°
2026-04-20 12:02 51.94375 10.00056 7134 ft 155 kts 56°
2026-04-20 12:03 51.94954 10.01531 7130 ft 155 kts 56°
2026-04-20 12:03 51.95533 10.03007 7134 ft 156 kts 56°
2026-04-20 12:03 51.96111 10.04481 7128 ft 154 kts 56°
2026-04-20 12:03 51.96679 10.05928 7134 ft 155 kts 57°
2026-04-20 12:04 51.97262 10.07417 7145 ft 157 kts 56°
2026-04-20 12:04 51.97852 10.08923 7142 ft 159 kts 56°
2026-04-20 12:04 51.98449 10.10450 7143 ft 161 kts 57°
2026-04-20 12:04 51.99051 10.11988 7140 ft 161 kts 57°
2026-04-20 12:05 51.99644 10.13508 7142 ft 159 kts 56°
2026-04-20 12:05 52.00236 10.15020 7141 ft 158 kts 57°
2026-04-20 12:05 52.00824 10.16528 7138 ft 158 kts 56°
2026-04-20 12:05 52.01400 10.18001 7134 ft 156 kts 57°
2026-04-20 12:06 52.01976 10.19478 7131 ft 154 kts 57°
2026-04-20 12:06 52.02546 10.20944 7126 ft 153 kts 57°
2026-04-20 12:06 52.03110 10.22390 7126 ft 151 kts 58°
2026-04-20 12:06 52.03669 10.23823 7124 ft 150 kts 57°
2026-04-20 12:07 52.04223 10.25248 7132 ft 149 kts 58°
2026-04-20 12:07 52.04777 10.26675 7124 ft 149 kts 58°
2026-04-20 12:07 52.05328 10.28090 7120 ft 147 kts 58°
2026-04-20 12:07 52.05869 10.29484 7121 ft 145 kts 58°
2026-04-20 12:08 52.06407 10.30870 7118 ft 145 kts 58°
2026-04-20 12:08 52.06943 10.32252 7124 ft 144 kts 58°
2026-04-20 12:08 52.07469 10.33608 7125 ft 143 kts 58°
2026-04-20 12:08 52.08002 10.34980 7128 ft 144 kts 58°
2026-04-20 12:09 52.08540 10.36370 7133 ft 146 kts 58°
2026-04-20 12:09 52.09087 10.37784 7132 ft 149 kts 58°
2026-04-20 12:09 52.09639 10.39209 7129 ft 148 kts 59°
2026-04-20 12:09 52.10186 10.40625 7119 ft 147 kts 59°
2026-04-20 12:10 52.10720 10.42005 7112 ft 142 kts 59°
2026-04-20 12:10 52.11240 10.43351 7107 ft 140 kts 59°
2026-04-20 12:10 52.11753 10.44681 7113 ft 138 kts 59°
2026-04-20 12:10 52.12261 10.45997 7112 ft 141 kts 59°
2026-04-20 12:11 52.12789 10.47368 7112 ft 145 kts 59°
2026-04-20 12:11 52.13328 10.48763 7118 ft 146 kts 59°
2026-04-20 12:11 52.13871 10.50173 7123 ft 148 kts 59°
2026-04-20 12:11 52.14415 10.51589 7124 ft 148 kts 59°
2026-04-20 12:12 52.14963 10.53010 7121 ft 149 kts 59°
2026-04-20 12:12 52.15511 10.54434 7121 ft 148 kts 60°
2026-04-20 12:12 52.16057 10.55857 7125 ft 149 kts 59°
2026-04-20 12:12 52.16604 10.57279 7124 ft 150 kts 59°
2026-04-20 12:13 52.17157 10.58716 7111 ft 150 kts 59°
2026-04-20 12:13 52.17711 10.60157 6961 ft 151 kts 60°
2026-04-20 12:13 52.18271 10.61602 6722 ft 148 kts 60°
2026-04-20 12:13 52.18809 10.62994 6472 ft 142 kts 60°
2026-04-20 12:14 52.19325 10.64336 6226 ft 137 kts 60°
2026-04-20 12:14 52.19823 10.65635 6052 ft 134 kts 59°
2026-04-20 12:14 52.20317 10.66917 5865 ft 133 kts 59°
2026-04-20 12:14 52.20807 10.68192 5697 ft 132 kts 59°
2026-04-20 12:15 52.21287 10.69444 5534 ft 132 kts 59°
2026-04-20 12:15 52.21780 10.70706 5373 ft 132 kts 58°
2026-04-20 12:15 52.22280 10.71967 5187 ft 133 kts 58°
2026-04-20 12:15 52.22779 10.73225 5027 ft 131 kts 58°
2026-04-20 12:16 52.23274 10.74471 4887 ft 131 kts 57°
2026-04-20 12:16 52.23755 10.75735 4732 ft 130 kts 59°
2026-04-20 12:16 52.24221 10.76985 4627 ft 128 kts 59°
2026-04-20 12:16 52.24676 10.78235 4513 ft 129 kts 59°
2026-04-20 12:17 52.25141 10.79495 4385 ft 130 kts 59°
2026-04-20 12:17 52.25583 10.80728 4309 ft 126 kts 60°
2026-04-20 12:17 52.26018 10.81992 4155 ft 129 kts 60°
2026-04-20 12:17 52.26451 10.83282 4021 ft 129 kts 60°
2026-04-20 12:18 52.27137 10.84175 3859 ft 132 kts 16°
2026-04-20 12:18 52.28091 10.84052 3628 ft 140 kts 356°
2026-04-20 12:18 52.29054 10.83825 3433 ft 140 kts 358°
2026-04-20 12:18 52.30021 10.83648 3253 ft 140 kts 358°
2026-04-20 12:19 52.30996 10.83471 3009 ft 141 kts 358°
2026-04-20 12:19 52.31946 10.83247 2807 ft 140 kts 346°
2026-04-20 12:19 52.32740 10.82288 2565 ft 151 kts 313°
2026-04-20 12:19 52.33106 10.80670 2358 ft 154 kts 282°
2026-04-20 12:20 52.33056 10.78907 2007 ft 156 kts 270°
2026-04-20 12:20 52.33017 10.77181 1902 ft 144 kts 274°
2026-04-20 12:20 52.32995 10.75562 1821 ft 141 kts 275°
2026-04-20 12:20 52.32976 10.73974 1812 ft 139 kts 273°
2026-04-20 12:21 52.32896 10.72410 1785 ft 137 kts 273°
2026-04-20 12:21 52.32812 10.70912 1794 ft 129 kts 271°
2026-04-20 12:21 52.32721 10.69574 1775 ft 111 kts 271°
2026-04-20 12:21 52.32635 10.68364 1735 ft 106 kts 272°
2026-04-20 12:22 52.32569 10.67161 1555 ft 107 kts 274°
2026-04-20 12:22 52.32511 10.65949 1414 ft 106 kts 272°
2026-04-20 12:22 52.32438 10.64779 1210 ft 100 kts 270°
2026-04-20 12:22 52.32388 10.63669 1050 ft 96 kts 272°
2026-04-20 12:23 52.32329 10.62593 946 ft 96 kts 268°
2026-04-20 12:23 52.32272 10.61519 814 ft 95 kts 270°
2026-04-20 12:23 52.32201 10.60456 671 ft 91 kts 270°
2026-04-20 12:23 52.32143 10.59472 545 ft 86 kts 269°
2026-04-20 12:24 52.32092 10.58497 450 ft 87 kts 268°
2026-04-20 12:24 52.32027 10.57492 330 ft 89 kts 267°
2026-04-20 12:24 52.31976 10.56581 287 ft 67 kts 266°
2026-04-20 12:24 52.31928 10.55726 308 ft 91 kts 269°
2026-04-20 12:25 52.31878 10.54657 586 ft 91 kts 268°
2026-04-20 12:25 52.31829 10.53603 886 ft 95 kts 270°
2026-04-20 12:25 52.31782 10.52508 1152 ft 100 kts 270°
2026-04-20 12:25 52.31712 10.51365 1445 ft 99 kts 270°
2026-04-20 12:26 52.31644 10.50229 1686 ft 104 kts 272°
2026-04-20 12:26 52.31571 10.49091 1985 ft 101 kts 272°
2026-04-20 12:26 52.31490 10.47950 2264 ft 100 kts 271°
2026-04-20 12:26 52.31401 10.46769 2450 ft 107 kts 272°
2026-04-20 12:27 52.31318 10.45590 2707 ft 105 kts 272°
2026-04-20 12:27 52.31236 10.44369 2889 ft 109 kts 272°
2026-04-20 12:27 52.31143 10.43144 3102 ft 109 kts 272°
2026-04-20 12:27 52.31093 10.41866 3229 ft 113 kts 281°
2026-04-20 12:28 52.31484 10.40915 3394 ft 96 kts 341°
2026-04-20 12:28 52.32106 10.40905 3555 ft 91 kts 17°
2026-04-20 12:28 52.32699 10.41158 3755 ft 89 kts 19°
2026-04-20 12:28 52.33305 10.41437 3924 ft 89 kts 20°
2026-04-20 12:29 52.33882 10.41837 4043 ft 96 kts 30°
2026-04-20 12:29 52.34500 10.42317 4181 ft 97 kts 29°
2026-04-20 12:29 52.35086 10.42769 4398 ft 94 kts 30°
2026-04-20 12:29 52.35691 10.43234 4541 ft 96 kts 30°
2026-04-20 12:30 52.36304 10.43690 4682 ft 98 kts 30°
2026-04-20 12:30 52.36903 10.44102 4894 ft 93 kts 30°
2026-04-20 12:30 52.37575 10.44178 4925 ft 113 kts 351°
2026-04-20 12:30 52.38207 10.43286 4983 ft 133 kts 308°
2026-04-20 12:31 52.38480 10.41764 4988 ft 143 kts 289°
2026-04-20 12:31 52.38743 10.40187 5023 ft 144 kts 291°
2026-04-20 12:31 52.39023 10.38570 4999 ft 148 kts 291°
2026-04-20 12:31 52.39298 10.36942 4983 ft 150 kts 291°
2026-04-20 12:32 52.39575 10.35289 4957 ft 151 kts 290°
2026-04-20 12:32 52.39862 10.33643 4954 ft 150 kts 291°
2026-04-20 12:32 52.40149 10.32012 4962 ft 149 kts 291°
2026-04-20 12:32 52.40424 10.30373 4963 ft 150 kts 290°
2026-04-20 12:33 52.40689 10.28748 4965 ft 149 kts 290°
2026-04-20 12:33 52.40967 10.27119 4996 ft 147 kts 288°
2026-04-20 12:33 52.41214 10.25474 4963 ft 150 kts 290°
2026-04-20 12:33 52.41499 10.23836 4984 ft 149 kts 290°
2026-04-20 12:34 52.41768 10.22195 4984 ft 150 kts 290°
2026-04-20 12:34 52.42022 10.20535 4992 ft 150 kts 289°
2026-04-20 12:34 52.42266 10.18904 5051 ft 146 kts 289°
2026-04-20 12:34 52.42514 10.17250 4999 ft 151 kts 289°
2026-04-20 12:35 52.42773 10.15557 4850 ft 158 kts 289°
2026-04-20 12:35 52.43056 10.13811 4533 ft 159 kts 290°
2026-04-20 12:35 52.43342 10.12077 4206 ft 160 kts 290°
2026-04-20 12:35 52.43631 10.10317 3877 ft 160 kts 290°
2026-04-20 12:36 52.43914 10.08566 3578 ft 158 kts 290°
2026-04-20 12:36 52.44186 10.06828 3245 ft 157 kts 287°
2026-04-20 12:36 52.44336 10.05052 2986 ft 153 kts 283°
2026-04-20 12:36 52.44419 10.03430 3001 ft 134 kts 283°
2026-04-20 12:37 52.44541 10.01974 2984 ft 126 kts 284°
2026-04-20 12:37 52.44599 10.00557 2958 ft 123 kts 282°
2026-04-20 12:37 52.44642 9.99171 2951 ft 120 kts 281°
2026-04-20 12:37 52.44684 9.97810 2910 ft 123 kts 280°
2026-04-20 12:38 52.44719 9.96409 2893 ft 121 kts 280°
2026-04-20 12:38 52.44763 9.95009 2812 ft 127 kts 281°
2026-04-20 12:38 52.44793 9.93549 2699 ft 129 kts 279°
2026-04-20 12:38 52.44820 9.92079 2609 ft 128 kts 279°